This demonstration page uses our WeatherBlox Daily Observations layout. Learn more.

Left ArrowRight Arrow

39.92423, -83.80882

Hourly Observations for March 4, 2018

Temp ( °F °C ) Dew Point ( °F °C ) Humidity (%) Winds ( mph kmh ) Pressure ( in mb ) Visibility ( mi km ) Precip ( " mm )
12:56 am 00:56 Clear 28 -2.2 21 -6.1 75 75 NE 5 7 30.47 1032 10 16 N/A
1:56 am 01:56 Clear 24 -4.4 19 -7.2 81 81 NE 9 15 30.46 1032 10 16 N/A
2:56 am 02:56 Clear 25 -3.9 20 -6.7 81 81 NE 8 13 30.45 1031 10 16 N/A
3:56 am 03:56 Clear 26 -3.3 20 -6.7 78 78 NNE 7 11 30.46 1032 10 16 N/A
4:56 am 04:56 Clear 24 -4.4 20 -6.7 84 84 NE 9 15 30.46 1032 10 16 N/A
5:56 am 05:56 Clear 25 -3.9 19 -7.2 78 78 NNE 7 11 30.48 1032 10 16 N/A
6:56 am 06:56 Clear 24 -4.4 19 -7.2 81 81 NNE 6 9 30.50 1033 10 16 N/A
7:56 am 07:56 Sunny 27 -2.8 23 -5 85 85 NE 6 9 30.50 1033 10 16 N/A
8:56 am 08:56 Sunny 30 -1.1 25 -3.9 82 82 ENE 12 19 30.51 1033 10 16 N/A
9:56 am 09:56 Sunny 33 0.6 24 -4.4 70 70 E 9 15 30.50 1033 10 16 N/A
10:56 am 10:56 Sunny 36 2.2 21 -6.1 55 55 E 13 20 30.49 1032 10 16 N/A
11:56 am 11:56 Sunny 39 3.9 24 -4.4 55 55 E 10 17 30.47 1032 10 16 N/A
12:56 pm 12:56 Sunny 41 5 25 -3.9 53 53 ESE 9 15 30.45 1031 10 16 N/A
1:56 pm 13:56 Sunny 43 6.1 24 -4.4 47 47 E 12 19 30.43 1030 10 16 N/A
2:56 pm 14:56 Sunny 44 6.7 23 -5 43 43 NE 8 13 30.40 1029 10 16 N/A
3:56 pm 15:56 Sunny 44 6.7 23 -5 43 43 ENE 10 17 30.39 1029 10 16 N/A
5:56 pm 17:56 Sunny 41 5 23 -5 49 49 NE 12 19 30.36 1028 10 16 N/A
6:56 pm 18:56 Clear 37 2.8 22 -5.6 54 54 NE 12 19 30.36 1028 10 16 N/A
7:56 pm 19:56 Clear 36 2.2 23 -5 59 59 NE 13 20 30.36 1028 10 16 N/A
8:56 pm 20:56 Clear 34 1.1 23 -5 64 64 NE 13 20 30.36 1028 10 16 N/A
9:56 pm 21:56 Clear 32 undefined 22 -5.6 66 66 NE 13 20 30.37 1028 10 16 N/A
10:56 pm 22:56 Clear 30 -1.1 23 -5 75 75 NE 12 19 30.36 1028 10 16 N/A
11:56 pm 23:56 Clear 28 -2.2 21 -6.1 75 75 ENE 9 15 30.35 1028 10 16 N/A

Powered by AerisWeather